TimeEST,TemperatureF,Dew PointF,Humidity,Sea Level PressureIn,VisibilityMPH,Wind Direction,Wind SpeedMPH,Gust SpeedMPH,PrecipitationIn,Events,Conditions,WindDirDegrees,DateUTC
12:40 AM,46.4,44.6,93,30.00,6.0,NW,8.1,-,N/A,,Mostly Cloudy,310,2012-12-09 05:40:00
12:49 AM,46.4,44.6,93,30.01,8.0,Variable,6.9,-,N/A,,Mostly Cloudy,0,2012-12-09 05:49:00
12:53 AM,46.9,44.1,90,30.03,8.0,NW,9.2,-,N/A,,Overcast,320,2012-12-09 05:53:00
1:03 AM,46.4,44.6,93,30.01,10.0,NW,4.6,-,N/A,,Overcast,320,2012-12-09 06:03:00
1:35 AM,46.4,42.8,87,30.02,10.0,NW,10.4,18.4,N/A,,Overcast,320,2012-12-09 06:35:00
1:53 AM,45.0,42.1,90,30.06,10.0,NNW,11.5,17.3,N/A,,Overcast,330,2012-12-09 06:53:00
2:03 AM,44.6,39.2,81,30.04,10.0,NNW,9.2,19.6,N/A,,Mostly Cloudy,330,2012-12-09 07:03:00
2:16 AM,42.8,39.2,87,30.04,10.0,NNW,11.5,18.4,N/A,,Scattered Clouds,330,2012-12-09 07:16:00
2:36 AM,44.6,39.2,81,30.05,10.0,NNW,10.4,20.7,N/A,,Mostly Cloudy,330,2012-12-09 07:36:00
2:53 AM,43.0,37.9,82,30.07,10.0,NNW,4.6,-,N/A,,Mostly Cloudy,330,2012-12-09 07:53:00
3:08 AM,42.8,37.4,81,30.04,10.0,North,5.8,-,N/A,,Mostly Cloudy,350,2012-12-09 08:08:00
3:22 AM,42.8,37.4,81,30.05,10.0,North,5.8,-,N/A,,Mostly Cloudy,350,2012-12-09 08:22:00
3:43 AM,41.0,37.4,87,30.06,10.0,NNW,6.9,-,N/A,,Mostly Cloudy,340,2012-12-09 08:43:00
3:53 AM,41.0,37.0,86,30.09,10.0,NNW,10.4,-,N/A,,Overcast,330,2012-12-09 08:53:00
4:04 AM,39.2,35.6,87,30.07,-9999.0,NNW,10.4,-,N/A,,Overcast,340,2012-12-09 09:04:00
4:53 AM,39.0,34.0,82,30.12,10.0,NNW,13.8,19.6,N/A,,Overcast,340,2012-12-09 09:53:00
5:53 AM,37.0,33.1,86,30.15,10.0,NNW,8.1,-,N/A,,Overcast,340,2012-12-09 10:53:00
6:53 AM,35.1,30.0,82,30.20,-9999.0,North,8.1,-,N/A,,Mostly Cloudy,350,2012-12-09 11:53:00
7:39 AM,33.8,30.2,87,30.17,10.0,North,8.1,-,N/A,,Scattered Clouds,10,2012-12-09 12:39:00
7:48 AM,33.8,30.2,87,30.17,10.0,North,4.6,-,N/A,,Mostly Cloudy,350,2012-12-09 12:48:00
7:53 AM,34.0,30.0,85,30.21,10.0,North,6.9,-,N/A,,Mostly Cloudy,350,2012-12-09 12:53:00
8:06 AM,33.8,30.2,87,30.17,10.0,North,6.9,-,N/A,,Scattered Clouds,350,2012-12-09 13:06:00
8:53 AM,35.1,30.0,82,30.21,-9999.0,North,9.2,-,N/A,,Clear,10,2012-12-09 13:53:00
9:53 AM,36.0,28.0,73,30.22,-9999.0,NE,5.8,-,N/A,,Partly Cloudy,50,2012-12-09 14:53:00
10:53 AM,37.9,27.0,65,30.22,-9999.0,Variable,4.6,-,N/A,,Overcast,0,2012-12-09 15:53:00
11:53 AM,37.0,30.0,76,30.20,-9999.0,East,8.1,-,N/A,,Overcast,90,2012-12-09 16:53:00
12:07 PM,37.4,30.2,75,30.17,-9999.0,ESE,8.1,-,N/A,,Overcast,110,2012-12-09 17:07:00
12:53 PM,37.0,32.0,82,30.18,-9999.0,East,6.9,-,0.00,,Overcast,80,2012-12-09 17:53:00
1:53 PM,37.0,32.0,82,30.17,-9999.0,East,6.9,-,N/A,,Overcast,100,2012-12-09 18:53:00
2:03 PM,37.4,32.0,81,30.13,-9999.0,East,8.1,-,0.00,Rain,Light Rain,100,2012-12-09 19:03:00
2:53 PM,37.0,32.0,82,30.18,-9999.0,East,4.6,-,0.00,,Overcast,100,2012-12-09 19:53:00
3:53 PM,37.0,30.0,76,30.17,-9999.0,East,8.1,-,N/A,,Overcast,90,2012-12-09 20:53:00
4:53 PM,36.0,28.9,76,30.17,-9999.0,ESE,11.5,-,0.00,Rain,Light Rain,120,2012-12-09 21:53:00
5:19 PM,35.6,28.4,75,30.11,-9999.0,ESE,12.7,19.6,0.00,,Overcast,120,2012-12-09 22:19:00
5:53 PM,34.0,30.9,89,30.17,10.0,ESE,12.7,-,0.00,,Overcast,120,2012-12-09 22:53:00
6:29 PM,33.8,30.2,87,30.12,4.0,ESE,10.4,-,N/A,,Overcast,110,2012-12-09 23:29:00
6:45 PM,33.8,32.0,93,30.11,3.0,ESE,11.5,-,N/A,,Overcast,110,2012-12-09 23:45:00
6:53 PM,33.1,32.0,96,30.17,3.0,ESE,9.2,-,N/A,,Overcast,110,2012-12-09 23:53:00
6:58 PM,33.8,32.0,93,30.11,1.8,ESE,11.5,-,N/A,,Overcast,110,2012-12-09 23:58:00
7:10 PM,33.8,32.0,93,30.10,0.5,ESE,10.4,-,N/A,Fog,Fog,110,2012-12-10 00:10:00
7:53 PM,34.0,33.1,96,30.14,0.5,ESE,12.7,-,0.00,Fog,Fog,110,2012-12-10 00:53:00
8:20 PM,33.8,33.8,100,30.06,-9999.0,East,10.4,-,0.00,Rain,Light Rain,100,2012-12-10 01:20:00
8:53 PM,34.0,33.1,96,30.11,-9999.0,ESE,10.4,-,0.00,Rain,Light Rain,110,2012-12-10 01:53:00
9:03 PM,33.8,33.8,100,30.05,0.5,East,10.4,-,0.00,Fog-Rain,Light Rain,100,2012-12-10 02:03:00
9:53 PM,35.1,34.0,96,30.08,0.2,East,10.4,-,0.01,Fog-Rain,Light Rain,100,2012-12-10 02:53:00
10:20 PM,35.6,33.8,93,30.02,0.5,ESE,5.8,-,0.01,Fog-Rain,Light Rain,110,2012-12-10 03:20:00
10:53 PM,36.0,35.1,97,30.04,0.2,East,9.2,-,0.02,Fog-Rain,Light Rain,100,2012-12-10 03:53:00
11:09 PM,35.6,35.6,100,29.99,-9999.0,ESE,9.2,-,0.00,Rain,Light Rain,110,2012-12-10 04:09:00
11:53 PM,36.0,36.0,100,30.01,-9999.0,ESE,8.1,-,0.00,Rain,Light Rain,110,2012-12-10 04:53:00